Weather History for Glasgow, MT

Change the Weather History Date:

Thursday, January 24, 2013

  Actual Average Record
Temperature  
Mean Temperature 19 °F 14 °F  
Max Temperature 30 °F 24 °F 55 °F (1968)
Min Temperature 7 °F 5 °F -45 °F (1920)
Degree Days  
Heating Degree Days 46 51  
Month to date heating degree days 1177 1239  
Since 1 July heating degree days 4707 4741  
Cooling Degree Days 0 0  
Month to date cooling degree days 0 0  
Year to date cooling degree days 0 0  
Moisture  
Dew Point 13 °F    
Average Humidity 76    
Maximum Humidity 84    
Minimum Humidity 68    
Precipitation  
Precipitation 0.00 in 0.01 in 0.32 in (1941)
Month to date precipitation 0.46 0.31  
Year to date precipitation 0.46 0.31  
Snow  
Snow 0.00 in 0.20 in 4.60 in (2004)
Month to date snowfall 10.8 6.6  
Since 1 July snowfall 33.4 21.2  
Snow Depth 1.00 in    
Sea Level Pressure  
Sea Level Pressure 30.04 in    
Wind  
Wind Speed 11 mph (SW)    
Max Wind Speed 29 mph    
Max Gust Speed 33 mph    
Visibility 10 miles    
Events      
T = Trace of Precipitation, MM = Missing Value Source: NWS Daily Summary

Daily Weather History Graph

Daily Weather History Graph

Search for Another Location

Airport:

Trip Planner

Search our weather history database for the weather conditions in past years. The results will help you decide how hot, cold, wet, or windy it might be!

Date:

Astronomy

Jan. 24, 2013 Rise Set
Actual Time 7:43 AM MST 4:53 PM MST
Civil Twilight 7:09 AM MST 5:28 PM MST
Nautical Twilight 6:31 AM MST 6:06 PM MST
Astronomical Twilight 5:54 AM MST 6:43 PM MST
Moon 2:56 PM MST (1/24) 5:46 AM MST (1/24)
Length of Visible Light 10h 18m
Length of Day
9h 10m
Waxing Gibbous, 95% of the Moon is Illuminated
Jan 24
Waxing Gibbous
Jan 26
Full
Feb 3
Last Quarter
Feb 10
New
Feb 17
First Quarter

Hourly Weather History & Observations

Time (MST) Temp. Windchill Dew Point Humidity Pressure Visibility Wind Dir Wind Speed Gust Speed Precip Events Conditions
12:53 AM 8.1 °F -12.6 °F 1.9 °F 76% 30.10 in 10.0 mi ESE 23.0 mph 31.1 mph N/A   Clear
1:53 AM 9.0 °F -11.0 °F 3.0 °F 77% 30.10 in 10.0 mi East 21.9 mph - N/A   Scattered Clouds
2:53 AM 9.0 °F -11.8 °F 3.9 °F 80% 30.06 in 10.0 mi ESE 24.2 mph 29.9 mph N/A   Overcast
3:53 AM 10.9 °F -7.5 °F 5.0 °F 77% 30.03 in 10.0 mi ESE 19.6 mph - N/A   Overcast
4:53 AM 12.0 °F -4.0 °F 7.0 °F 80% 29.99 in 10.0 mi ESE 15.0 mph - N/A   Overcast
5:53 AM 12.9 °F -1.6 °F 8.1 °F 81% 29.98 in 10.0 mi ESE 12.7 mph - N/A   Overcast
6:53 AM 15.1 °F 1.1 °F 10.0 °F 80% 29.97 in 10.0 mi ESE 12.7 mph - N/A   Overcast
7:53 AM 16.0 °F 2.9 °F 10.9 °F 81% 29.96 in 10.0 mi East 11.5 mph - N/A   Overcast
8:53 AM 17.1 °F 7.6 °F 12.0 °F 81% 29.96 in 10.0 mi ESE 6.9 mph - N/A   Scattered Clouds
9:53 AM 17.1 °F 8.7 °F 12.0 °F 81% 29.98 in 10.0 mi SE 5.8 mph - N/A   Clear
10:53 AM 19.9 °F 13.4 °F 14.0 °F 78% 29.99 in 10.0 mi SSW 4.6 mph - N/A   Clear
11:53 AM 24.1 °F 16.0 °F 16.0 °F 71% 29.98 in 10.0 mi West 6.9 mph - N/A   Clear
12:53 PM 27.0 °F 18.7 °F 17.1 °F 66% 29.98 in 10.0 mi West 8.1 mph - N/A   Clear
1:53 PM 28.9 °F 18.6 °F 19.9 °F 69% 29.99 in 10.0 mi NW 12.7 mph - N/A   Clear
2:53 PM 30.0 °F 19.1 °F 21.0 °F 69% 30.02 in 10.0 mi NW 15.0 mph - N/A   Clear
3:53 PM 28.9 °F 21.1 °F 21.0 °F 72% 30.04 in 10.0 mi WNW 8.1 mph - N/A   Clear
4:53 PM 25.0 °F 17.1 °F 19.9 °F 81% 30.06 in 10.0 mi WNW 6.9 mph - N/A   Clear
5:53 PM 25.0 °F 14.2 °F 19.9 °F 81% 30.08 in 10.0 mi West 11.5 mph - N/A   Clear
6:53 PM 21.9 °F 12.5 °F 18.0 °F 85% 30.11 in 10.0 mi WNW 8.1 mph - N/A   Clear
7:53 PM 23.0 °F 13.1 °F 18.0 °F 81% 30.12 in 10.0 mi WNW 9.2 mph - N/A   Clear
8:53 PM 19.0 °F - 16.0 °F 88% 30.13 in 10.0 mi Calm Calm - N/A   Clear
9:53 PM 18.0 °F 9.8 °F 14.0 °F 84% 30.14 in 10.0 mi West 5.8 mph - N/A   Clear
10:53 PM 18.0 °F 9.8 °F 14.0 °F 84% 30.15 in 10.0 mi NW 5.8 mph - N/A   Clear
11:53 PM 18.0 °F 9.8 °F 14.0 °F 84% 30.15 in 10.0 mi WSW 5.8 mph - N/A   Clear